Amarillo, TX

11:58 AM CDT on September 17, 2019 (GMT -0500)
Amarillo International

Weather History for KAMA - May, 2019

Change the Weather History Date:

Sunday, May 26, 2019

  Actual Average Record
Temperature  
Mean Temperature 63 °F 69 °F  
Max Temperature 70 °F 82 °F 100 °F (1953)
Min Temperature 56 °F 55 °F 39 °F (1950)
Degree Days  
Heating Degree Days 2 1  
Month to date heating degree days 111 78  
Since 1 July heating degree days 4094 4166  
Cooling Degree Days 0 5  
Month to date cooling degree days 35 76  
Year to date cooling degree days 51 97  
Growing Degree Days 12 (Base 50)    
Moisture  
Dew Point 63 °F    
Average Humidity 92    
Maximum Humidity 100    
Minimum Humidity 84    
Precipitation  
Precipitation 0.97 in 0.10 in 3.86 in (1905)
Month to date precipitation 3.35 1.77  
Year to date precipitation 7.44 5.84  
Snow  
Snow 0.00 in 0.00 in 0.00 in ()
Month to date snowfall 0.0 0.2  
Since 1 July snowfall 8.1 17.8  
Snow Depth 0.00 in    
Sea Level Pressure  
Sea Level Pressure 29.92 in    
Wind  
Wind Speed 17 mph (SSE)    
Max Wind Speed 35 mph    
Max Gust Speed 45 mph    
Visibility 5 miles    
Events Fog , Rain , Thunderstorm    
T = Trace of Precipitation, MM = Missing Value Source: NWS Daily Summary

Daily Weather History Graph

Daily Weather History Graph

Search for Another Location

Airport or City:

Astronomy

May. 26, 2019 Rise Set
Actual Time 6:36 AM CDT 8:52 PM CDT
Civil Twilight 6:07 AM CDT 9:21 PM CDT
Nautical Twilight 5:31 AM CDT 9:56 PM CDT
Astronomical Twilight 4:53 AM CDT 10:35 PM CDT
Moon 2:30 AM CDT (5/26) 1:30 PM CDT (5/26)
Length of Visible Light 15h 14m
Length of Day
14h 16m
Waning Gibbous, 50% of the Moon is Illuminated
May 26
Waning Gibbous
Jun 3
New
Jun 10
First Quarter
Jun 17
Full
Jun 25
Last Quarter

Hourly Weather History & Observations

Time (CDT) Temp. Dew Point Humidity Pressure Visibility Wind Dir Wind Speed Gust Speed Precip Events Conditions
12:53 AM 66.9 °F 63.0 °F 87% 29.82 in 10.0 mi South 18.4 mph - N/A   Clear
1:53 AM 66.0 °F 63.0 °F 90% 29.84 in 9.0 mi SSE 12.7 mph - N/A   Clear
2:53 AM 63.0 °F 61.0 °F 93% 29.84 in 6.0 mi SSE 13.8 mph - N/A   Clear
3:08 AM 63.0 °F 61.0 °F 93% 29.97 in 6.0 mi SSE 15.0 mph - N/A   Partly Cloudy
3:21 AM 62.1 °F 61.0 °F 96% 29.97 in 3.0 mi SE 16.1 mph - N/A   Mostly Cloudy
3:25 AM 62.1 °F 61.0 °F 96% 29.97 in 1.8 mi SSE 15.0 mph - N/A   Mostly Cloudy
3:30 AM 62.1 °F 61.0 °F 96% 29.97 in 0.8 mi SE 17.3 mph - N/A   Mist
3:40 AM 63.0 °F 61.0 °F 93% 29.97 in 0.5 mi SSE 16.1 mph - N/A Fog Fog
3:53 AM 63.0 °F 62.1 °F 97% 29.84 in 0.2 mi SSE 13.8 mph - N/A Fog Fog
4:01 AM 63.0 °F 62.1 °F 97% 29.97 in 0.2 mi SSE 16.1 mph - N/A Fog Fog
4:51 AM 64.4 °F 62.6 °F 94% 29.97 in 0.5 mi SSE 18.4 mph - N/A Fog Fog
4:53 AM 64.0 °F 63.0 °F 96% 29.87 in 0.5 mi SSE 17.3 mph - N/A Fog Fog
5:02 AM 64.0 °F 63.0 °F 96% 29.97 in 0.5 mi SSE 15.0 mph - N/A Fog Fog
5:43 AM 64.0 °F 62.1 °F 93% 29.97 in 0.2 mi SSE 16.1 mph - N/A Fog Fog
5:53 AM 63.0 °F 62.1 °F 97% 29.87 in 0.2 mi SSE 15.0 mph - N/A Fog Fog
6:06 AM 64.0 °F 62.1 °F 93% 29.98 in 0.2 mi SSE 17.3 mph - N/A Fog Fog
6:13 AM 64.0 °F 62.1 °F 93% 29.98 in 0.5 mi SSE 15.0 mph - N/A Fog Fog
6:20 AM 64.0 °F 63.0 °F 96% 29.98 in 0.5 mi SSE 17.3 mph - N/A Fog Fog
6:41 AM 63.0 °F 62.1 °F 97% 29.98 in 0.2 mi SSE 17.3 mph - N/A Fog Fog
6:53 AM 64.0 °F 63.0 °F 96% 29.87 in 0.2 mi SSE 16.1 mph - N/A Fog Fog
7:15 AM 64.0 °F 63.0 °F 96% 30.00 in 0.2 mi SSE 11.5 mph - N/A Fog Fog
7:22 AM 64.0 °F 63.0 °F 96% 30.00 in 0.8 mi SSE 11.5 mph - N/A   Mist
7:26 AM 64.0 °F 63.0 °F 96% 30.00 in 1.2 mi SSE 11.5 mph - N/A   Overcast
7:31 AM 64.0 °F 63.0 °F 96% 30.00 in 3.0 mi SSE 12.7 mph - N/A   Overcast
7:53 AM 64.0 °F 63.0 °F 96% 29.88 in 5.0 mi SSE 11.5 mph - N/A   Overcast
8:36 AM 64.9 °F 63.0 °F 93% 30.01 in 6.0 mi SSE 16.1 mph - N/A   Overcast
8:53 AM 66.0 °F 64.0 °F 93% 29.89 in 6.0 mi SSE 16.1 mph - N/A   Overcast
9:20 AM 66.0 °F 64.0 °F 93% 30.01 in 6.0 mi SSE 13.8 mph - N/A   Overcast
9:42 AM 66.0 °F 64.9 °F 96% 30.02 in 6.0 mi SSE 15.0 mph - N/A   Overcast
9:53 AM 66.9 °F 64.0 °F 90% 29.91 in 7.0 mi SSE 17.3 mph - N/A   Overcast
10:27 AM 68.0 °F 64.9 °F 90% 30.01 in 6.0 mi SSE 15.0 mph 25.3 mph N/A   Overcast
10:53 AM 68.0 °F 64.0 °F 87% 29.88 in 8.0 mi SSE 19.6 mph - N/A   Overcast
11:00 AM 68.0 °F 64.0 °F 87% 30.00 in 7.0 mi SSE 18.4 mph - N/A   Overcast
11:18 AM 69.1 °F 64.9 °F 87% 30.00 in 8.0 mi SSE 18.4 mph - N/A   Overcast
11:53 AM 69.1 °F 64.9 °F 87% 29.87 in 8.0 mi SSE 17.3 mph 24.2 mph N/A   Overcast
12:15 PM 69.1 °F 64.0 °F 84% 30.00 in 9.0 mi SSE 19.6 mph 24.2 mph N/A   Overcast
12:53 PM 70.0 °F 64.0 °F 81% 29.87 in 10.0 mi SSE 18.4 mph - N/A   Overcast
1:00 PM 70.0 °F 64.0 °F 81% 29.99 in 10.0 mi SSE 16.1 mph - N/A   Overcast
1:28 PM 69.1 °F 64.9 °F 87% 29.99 in 7.0 mi SSE 13.8 mph 24.2 mph N/A   Overcast
1:35 PM 70.0 °F 64.9 °F 84% 29.99 in 9.0 mi South 15.0 mph - N/A   Overcast
1:46 PM 70.0 °F 64.9 °F 84% 29.98 in 8.0 mi SSE 18.4 mph - N/A   Overcast
1:53 PM 70.0 °F 64.9 °F 84% 29.86 in 8.0 mi SSE 17.3 mph - N/A   Overcast
2:09 PM 69.1 °F 64.9 °F 87% 29.98 in 9.0 mi SSE 21.9 mph 27.6 mph N/A Thunderstorm Overcast
2:29 PM 69.1 °F 64.9 °F 87% 29.98 in 7.0 mi SSE 16.1 mph - 0.00 in Rain Light Rain
2:42 PM 66.9 °F 64.9 °F 93% 29.99 in 2.5 mi South 23.0 mph - 0.01 in Rain , Thunderstorm Light Rain
2:53 PM 66.9 °F 64.9 °F 93% 29.88 in 3.0 mi South 19.6 mph 26.5 mph 0.02 in Rain , Thunderstorm Light Thunderstorms and Rain
2:57 PM 66.9 °F 64.9 °F 93% 30.02 in 1.8 mi SW 17.3 mph - 0.01 in Rain , Thunderstorm Thunderstorms and Rain
3:03 PM 64.0 °F 57.9 °F 80% 30.01 in 0.8 mi South 8.1 mph - 0.08 in Rain , Thunderstorm Heavy Thunderstorms and Rain
3:11 PM 64.0 °F 61.0 °F 90% 29.98 in 0.5 mi SE 16.1 mph - 0.37 in Fog , Rain , Thunderstorm Heavy Thunderstorms and Rain
3:18 PM 66.0 °F 62.1 °F 87% 29.96 in 1.0 mi SE 19.6 mph 27.6 mph 0.50 in Rain , Thunderstorm Heavy Thunderstorms and Rain
3:23 PM 66.0 °F 64.0 °F 93% 29.95 in 2.0 mi SE 19.6 mph 27.6 mph 0.56 in Rain , Thunderstorm Light Thunderstorms and Rain
3:32 PM 66.9 °F 64.9 °F 93% 29.95 in 8.0 mi SE 17.3 mph - 0.57 in Rain , Thunderstorm Light Rain
3:39 PM 68.0 °F 64.9 °F 90% 29.95 in 6.0 mi SE 19.6 mph 26.5 mph 0.57 in Thunderstorm Mostly Cloudy
3:53 PM 68.0 °F 64.9 °F 90% 29.84 in 6.0 mi SSE 19.6 mph 26.5 mph 0.57 in   Overcast
4:53 PM 69.1 °F 64.9 °F 87% 29.78 in 7.0 mi SE 21.9 mph 28.8 mph 0.00 in   Overcast
5:13 PM 68.0 °F 64.0 °F 87% 29.91 in 8.0 mi SSE 25.3 mph 33.4 mph N/A   Overcast
5:53 PM 68.0 °F 64.9 °F 90% 29.74 in 8.0 mi SE 26.5 mph 34.5 mph N/A   Overcast
6:22 PM 68.0 °F 64.9 °F 90% 29.87 in 9.0 mi SSE 29.9 mph 36.8 mph N/A   Overcast
6:53 PM 68.0 °F 64.0 °F 87% 29.73 in 8.0 mi SSE 27.6 mph 33.4 mph N/A   Overcast
7:53 PM 69.1 °F 64.0 °F 84% 29.70 in 10.0 mi SSE 21.9 mph 33.4 mph N/A   Overcast
8:08 PM 69.1 °F 64.9 °F 87% 29.86 in 10.0 mi SSE 23.0 mph 33.4 mph N/A   Overcast
8:53 PM 69.1 °F 64.9 °F 87% 29.76 in 10.0 mi South 18.4 mph 29.9 mph N/A   Mostly Cloudy
9:05 PM 70.0 °F 64.9 °F 84% 29.90 in 10.0 mi SSE 24.2 mph 46.0 mph N/A   Mostly Cloudy
9:19 PM 69.1 °F 64.9 °F 87% 29.92 in 10.0 mi South 13.8 mph - N/A   Mostly Cloudy
9:32 PM 70.0 °F 64.9 °F 84% 29.95 in 10.0 mi WSW 13.8 mph 28.8 mph N/A Thunderstorm Mostly Cloudy
9:37 PM 63.0 °F 55.9 °F 78% 30.00 in 0.8 mi West 26.5 mph 39.1 mph 0.00 in Rain , Thunderstorm Light Thunderstorms and Rain
9:44 PM 55.9 °F 53.1 °F 90% 29.99 in 0.8 mi West 18.4 mph 35.7 mph 0.24 in Rain , Thunderstorm Heavy Thunderstorms and Rain
9:46 PM 55.9 °F 53.1 °F 90% 30.00 in 5.0 mi WSW 10.4 mph 34.5 mph 0.26 in Rain , Thunderstorm Heavy Thunderstorms and Rain
9:53 PM 57.0 °F 54.0 °F 89% 29.83 in 8.0 mi NNW 4.6 mph - 0.29 in Rain , Thunderstorm Light Thunderstorms and Rain
10:27 PM 63.0 °F 55.9 °F 78% 29.90 in 10.0 mi South 12.7 mph - 0.08 in Thunderstorm Thunderstorm
10:34 PM 62.1 °F 57.0 °F 84% 29.91 in 9.0 mi SSW 11.5 mph - 0.08 in Rain , Thunderstorm Light Rain
10:42 PM 63.0 °F 57.9 °F 84% 29.88 in 9.0 mi South 12.7 mph - 0.09 in Rain Light Rain
10:53 PM 63.0 °F 60.1 °F 90% 29.74 in 10.0 mi SE 15.0 mph - 0.09 in   Partly Cloudy
11:00 PM 64.0 °F 61.0 °F 90% 29.86 in 10.0 mi SE 16.1 mph - N/A   Partly Cloudy
11:53 PM 63.0 °F 60.1 °F 90% 29.76 in 10.0 mi NNW 5.8 mph - N/A   Mostly Cloudy